Regional Weather Roundup
Issued by NWS Charleston, SC

Current Version | Previous Version | Graphics & Text | Print | Product List | Glossary On
Versions: 1 2 3 4 5 6 7 8 9 10 11 12 13 14 15 16 17 18 19 20 21 22 23 24 25 26 27 28 29 30 31 32 33 34 35 36 37 38 39 40 41 42 43 44 45 46 47 48 49 50
000 ASUS42 KCHS 240411 RWRCHS REGIONAL WEATHER ROUNDUP NATIONAL WEATHER SERVICE CHARLESTON SC 1100 PM EST THU FEB 23 2017 NOTE: "FAIR" INDICATES FEW OR NO CLOUDS BELOW 12,000 FEET WITH NO SIGNIFICANT WEATHER AND/OR OBSTRUCTIONS TO VISIBILITY. NOT ALL STATIONS ARE QUALITY CONTROLLED. USE DATA WITH CAUTION... ESPECIALLY DEWPOINT OBSERVATIONS. SCZ027-030-031-034>040-042>050-240500- ...SOUTHEAST SOUTH CAROLINA... CITY SKY/WX TMP DP RH WIND PRES REMARKS N CHARLESTON CLEAR 61 57 87 NE6 29.87F WATERFRONT PRK N/A 63 61 93 N6 29.87R MOUNT PLEASANT FAIR 61 59 94 CALM 29.88S JOHNS ISLAND FAIR 63 61 94 N5 29.87S PINOPOLIS N/A 61 59 94 VRB3 29.80R MONCKS CORNER FAIR 59 57 94 NE3 29.89S SUMMERVILLE FAIR 59 57 94 CALM 29.90S BEAUFORT MCAS CLEAR 59 59 100 N6 29.87S BEAUFORT ARPT FAIR 61 59 94 NE6 29.87R HILTON HEAD IS CLEAR 64 63 94 NE7 29.87S WALTERBORO CLEAR 57 55 94 CALM 29.90R ALLENDALE FAIR 61 57 88 CALM 29.88S ...SOUTHERN MIDLANDS AND PEE DEE... CITY SKY/WX TMP DP RH WIND PRES REMARKS GEORGETOWN FAIR 55 55 100 CALM 29.90S KINGSTREE FAIR 55 52 88 CALM 29.90S ORANGEBURG CLEAR 59 56 89 E3 29.90R BARNWELL FAIR 63 59 88 CALM 29.90R AIKEN FAIR 54 50 87 E3 29.94R MANNING FAIR 54 50 87 MISG 29.90S COLUMBIA CLEAR 59 53 80 CALM 29.90R SUMTER CLEAR 58 53 83 CALM 29.89R FLORENCE CLEAR 58 56 93 CALM 29.91S MYRTLE BEACH NOT AVBL N MYRTLE BEACH CLEAR 59 58 96 NE3 29.89F $$ GAZ063-065-086>088-099>101-113>116-118-119-134>141-150-240500- ...SOUTHEAST GEORGIA... CITY SKY/WX TMP DP RH WIND PRES REMARKS SAVANNAH ARPT CLEAR 62 59 90 NE7 29.86S HUNTER AAF CLEAR 63 63 100 NE3 29.83S FORT STEWART CLEAR 62 59 91 N3 29.84R STATESBORO CLEAR 58 32 38 CALM 29.88S FOG SYLVANIA CLEAR N/A N/A N/A E3 29.89S CLAXTON FAIR N/A N/A N/A CALM 29.88R HAZE ...CSRA...CENTRAL AND FAR SOUTHEAST GEORGIA... CITY SKY/WX TMP DP RH WIND PRES REMARKS THOMSON CLEAR 56 56 97 CALM 29.94S AUGUSTA-BUSH CLEAR 60 54 80 CALM 29.89R AUGUSTA-DANIEL CLEAR 66 52 60 E3 29.90R SWAINSBORO FAIR 59 57 94 CALM 29.89S VIDALIA CLEAR 63 63 100 E3 29.88R EASTMAN FAIR 58 58 100 CALM 29.90S HAZLEHURST FAIR 62 62 100 CALM 29.86S ALMA CLEAR 57 57 100 CALM 29.86R WAYCROSS CLEAR 64 64 100 NE3 29.85R JESUP FAIR 63 59 88 NE3 29.86R BAXLEY FAIR 59 59 100 CALM 29.86S BRUNSWICK PTCLDY 64 63 94 NE6 29.84F SAINT SIMONS CLEAR 65 61 87 N10 29.82F $$ SCZ027-028-034-036>038-045-046-048>050-GAZ119-141-240500- ...LAKE AND SUPPLEMENTAL COASTAL OBSERVATIONS... STATION/POSITION TIME TEMP WIND PRES WAVE SWELL AIR SEA DIR/SP/G HT/PER HT/PER/DIR (UTC) (F) (DEG/KT/KT) (MB) (FT/S) (FT/S/D) WINYAH BAY NOT AVBL LAKE MURRAY 0320 62 CALM 1012.2 ACE BASIN NERRS NOT AVBL FORT PULASKI 0348 65 62 60/ 10/ 12 1011.2R SAPELO ISLAND 0300 66 50/ 10 1010.0 $$ ANZ835-935-AMZ111-154-330-350-352-354-370-450-454-472-240500- ...C-MAN AND BUOY OBSERVATIONS... STATION/POSITION TIME TEMP WIND PRES WAVE SWELL AIR SEA DIR/SP/G HT/PER HT/PER/DIR (UTC) (F) (DEG/KT/KT) (MB) (FT/S) (FT/S/D) BUOY 41004 0250 71 70 60/ 14/ 16 1010.3 10/10 8/150/10 BUOY 41008 0250 64 62 40/ 12/ 14 1009.4 7/10 7/110/10 FOLLY BEACH CMAN 0300 64 20/ 8/ 10 1012.0R CAPERS NEARSHORE 0308 62 60 40/ 10/ 14 1011.5R FRIPP NEARSHORE 0308 63 61 60/ 14/ 17 1010.8R STATION/POSITION TIME TEMP WIND PRES WAVE SWELL AIR SEA DIR/SP/G HT/PER HT/PER/DIR (UTC) (F) (DEG/KT/KT) (MB) (FT/S) (FT/S/D) 5E ST. MARYS GA 0330 63 N/A 7/11 3/120/11 FRYING PAN BUOY 0350 71 71 100/ 14/ 17 1012.0R 8/ 8 7/160/ 8 BUOY 41025 0350 71 74 140/ 16/ 19 1013.8R 5/ 7 3/ 60/10 CAPE LOOKOUT NC 0300 66 150/ 8/ 9 1013.0R BUOY 41002 0350 68 69 100/ 25/ 31 1009.5F 11/10 8/120/10 BUOY 41010 NOT AVBL ST AUGUSTINE FL 0400 67 67 10/ 15/ 17 1009.0R $$

USA.gov is the U.S. government's official web portal to all federal, state and local government web resources and services.